Flag for Ukraine Weather past 2 weeks in Chernobyl, Ukraine

Now
61 °F

Cool.


Feels Like: 61 °F
Forecast: 62 / 80 °F
Wind: 1 mph from Northeast

Location: Hostomel

Current Time: May 26, 2015 at 6:53:33 AM

Latest Report: May 26, 2015 at 6:00 AM


Visibility: 6 mi

Pressure: 29.77 "Hg

Humidity: 94%

Dew point: 59 °F

Location of ChernobylLocation

Historic Weather in Chernobyl — Graph

°F

Chernobyl temperature yesterday

Maximum temperature yesterday: 77 °F (at 4:00 PM)
Minimum temperature yesterday: 54 °F (at 5:00 AM)
Average temperature yesterday: 65 °F

Past Weeks' High & Low Weather Summary

 TemperatureHumidityPressure
High84 °F (May 21, 4:30 PM)100% (May 12, 6:00 AM)30.24 "Hg (May 12, 6:00 AM)
Low43 °F (May 11, 6:00 AM)25% (May 11, 6:00 PM)29.50 "Hg (May 15, 3:00 AM)
Average64 °F59%29.96 "Hg
* Reported May 11 5:00 AM — May 26 5:00 AM, Chernobyl, Weather by CustomWeather, © 2015

Note: Actual official high and low records may vary slightly from our data, if they occured in-between our weather recording intervals... More about our weather records

Advertising

Chernobyl weather history for previous 24 hours

 ConditionsComfort  
Time TempWeatherWind HumidityBarometerVisibility
5:00 AM
Tue, May 26
59 °FCool.1 mph94%29.77 "Hg5 mi
4:00 AM59 °FCool.1 mph100%29.77 "Hg6 mi
3:00 AM63 °FMild.3 mph88%29.80 "Hg6 mi
2:00 AM63 °FMild.3 mph88%29.80 "Hg6 mi
1:00 AM64 °FMild.6 mph83%29.83 "HgN/A
12:00 AM66 °FMild.3 mph78%29.83 "HgN/A
11:00 PM
Mon, May 25
66 °FMild.3 mph83%29.86 "HgN/A
10:00 PM68 °FMild.3 mph78%29.86 "HgN/A
9:00 PM70 °FMild.3 mph69%29.86 "HgN/A
8:00 PM73 °FMild.6 mph65%29.86 "HgN/A
7:00 PM77 °FWarm.6 mph57%29.86 "HgN/A
6:00 PM77 °FWarm.6 mph57%29.86 "HgN/A
5:00 PM77 °FSunny.8 mph54%29.89 "Hg10 mi
4:30 PM77 °FPassing clouds.6 mph54%29.89 "HgN/A
4:00 PM77 °FPassing clouds.6 mph54%29.92 "HgN/A
3:30 PM75 °FSunny.8 mph61%29.92 "Hg10 mi
3:00 PM75 °FPassing clouds.6 mph61%29.92 "HgN/A
2:30 PM73 °FPassing clouds.8 mph65%29.92 "HgN/A
2:00 PM73 °FPassing clouds.8 mph65%29.95 "HgN/A
1:30 PM72 °FPassing clouds.8 mph69%29.95 "HgN/A
1:00 PM68 °FSunny.8 mph73%29.95 "Hg10 mi
12:30 PM66 °FSunny.8 mph78%29.95 "Hg10 mi
12:00 PM64 °FPassing clouds.8 mph83%29.95 "HgN/A
11:30 AM63 °FScattered clouds.8 mph88%29.95 "HgN/A
11:00 AM61 °FPartly sunny.6 mph94%29.98 "HgN/A
10:30 AM61 °FLow clouds.6 mph88%29.98 "HgN/A
10:00 AM59 °FMore clouds than sun.6 mph94%29.98 "HgN/A
9:30 AM59 °FMore clouds than sun.6 mph94%29.98 "HgN/A
9:00 AM59 °FMore clouds than sun.8 mph94%29.98 "HgN/A
8:00 AM59 °FLow clouds.6 mph88%29.98 "HgN/A
7:00 AM57 °FLow clouds.6 mph94%29.98 "HgN/A
6:30 AM55 °FLow clouds.6 mph100%29.98 "HgN/A
6:00 AM55 °FPartly sunny.3 mph100%29.98 "HgN/A
Weather by CustomWeather, © 2015

See weather overviewHow to use our weather pages